Погода в Мадурае

Индия     9˚56′14″N   78˚08′23″E
темп.,
°C
ветер,
м/с
пор.,
м/с
влажн.,
%
обл.,
%
осадки,
мм/ч
давл.,
гПа
погр.,
м
18 января, пн
пн1823:30+21˚ссв49850 0.0 1013316
02:30+20˚ссв36850 0.0 1011163
05:30+19˚с35860 0.0 1012102
08:30+22˚ссв59800 0.0 1014644
11:30+26˚ссв68670 0.0 1014978
14:30+27˚св67630 0.0 10101158
17:30+26˚св46720 0.0 1010728
20:30+22˚св388414 0.0 1012278
19 января, вт
вт1923:30+21˚ссв378827 0.0 1013228
02:30+20˚ссв378947 0.0 1011213
05:30+19˚с249154 0.0 101187
08:30+22˚ссв48810 0.0 1013621
11:30+26˚ссв67650 0.0 10131058
14:30+28˚ссв67590 0.0 10101273
17:30+26˚св48680 0.0 1010522
20:30+23˚ссв347271 0.0 101273
20 января, ср
ср2023:30+21˚св358383 0.0 1012112
02:30+21˚ссв368296 0.0 1011160
05:30+20˚ссв368597 0.0 1012165
08:30+23˚с3477100 0.0 1014278
11:30+26˚ссв246291 0.0 1013542
14:30+27˚св246291 0.0 1010689
17:30+28˚св236979 0.0 1010112
20:30+24˚св2382100 0.0 101389
21 января, чт
чт2123:30+23˚св3590100 0.0 1013165
02:30+23˚с3488100 0.0 1011113
05:30+23˚ссв2287100 0.0 101142
08:30+25˚ссв2379100 0.0 1013254
11:30+29˚св3464100 0.0 10131018
14:30+31˚св345744 0.0 10091385
17:30+29˚всв356662 0.0 1009245
20:30+25˚всв368145 0.0 1011157
22 января, пт
пт2223:30+24˚св349322 0.0 1011163
02:30+23˚св23950 0.0 101089
05:30+22˚ссв339516 0.0 101189
08:30+24˚св348439 0.0 1013332
11:30+29˚всв235519 0.0 10121056
14:30+31˚св45450 0.0 10091448
17:30+29˚ссв34550 0.0 1008106
20:30+25˚в35750 0.0 1011108